RUC974 SVBM-MPTO

Flight info

Callsign RUC974
Flight time N/A
Altitude 34000
Route ATEXA1 KOKRY DCT UBNIG DCT PUMPA DCT ESEDA DCT PONPO MEVI1B
Aircraft MD83/M-SDFGIRWY/C

Departure

Time N/A
Airport Jacinto Lara International Airport (SVBM)

Arrival

Time 2026-05-05 03:29
Airport Tocumen International Airport (MPTO)
Time Latitude Longitude Altitude Speed Heading
2026-05-05 03:02 9.25067 -78.36015 14990 ft 321 kts 270°
2026-05-05 03:02 9.25095 -78.38234 14918 ft 314 kts 270°
2026-05-05 03:02 9.25119 -78.40469 14911 ft 314 kts 270°
2026-05-05 03:02 9.25142 -78.42691 14915 ft 316 kts 270°
2026-05-05 03:03 9.25164 -78.44945 14831 ft 320 kts 270°
2026-05-05 03:03 9.25185 -78.47209 14574 ft 322 kts 270°
2026-05-05 03:03 9.25207 -78.49486 14326 ft 321 kts 270°
2026-05-05 03:03 9.25228 -78.51751 14074 ft 319 kts 270°
2026-05-05 03:04 9.25250 -78.54037 13817 ft 317 kts 270°
2026-05-05 03:04 9.25271 -78.56255 13567 ft 316 kts 270°
2026-05-05 03:04 9.25292 -78.58469 13315 ft 314 kts 270°
2026-05-05 03:04 9.25313 -78.60693 13062 ft 312 kts 270°
2026-05-05 03:05 9.25334 -78.62891 12811 ft 311 kts 270°
2026-05-05 03:05 9.25355 -78.65055 12571 ft 309 kts 270°
2026-05-05 03:05 9.25376 -78.67230 12688 ft 304 kts 270°
2026-05-05 03:05 9.25397 -78.69376 12813 ft 306 kts 270°
2026-05-05 03:06 9.25418 -78.71520 12909 ft 309 kts 270°
2026-05-05 03:06 9.25439 -78.73714 12912 ft 311 kts 270°
2026-05-05 03:06 9.25461 -78.75926 12913 ft 312 kts 270°
2026-05-05 03:06 9.25483 -78.78106 12912 ft 312 kts 270°
2026-05-05 03:07 9.25505 -78.80303 12911 ft 312 kts 270°
2026-05-05 03:07 9.25528 -78.82519 12911 ft 312 kts 270°
2026-05-05 03:07 9.25550 -78.84716 12911 ft 312 kts 270°
2026-05-05 03:07 9.25573 -78.86932 12911 ft 311 kts 270°
2026-05-05 03:08 9.25596 -78.89134 12911 ft 311 kts 270°
2026-05-05 03:08 9.25618 -78.91325 12911 ft 311 kts 270°
2026-05-05 03:08 9.25641 -78.93513 12911 ft 311 kts 270°
2026-05-05 03:08 9.25664 -78.95693 12911 ft 311 kts 270°
2026-05-05 03:09 9.25687 -78.97875 12911 ft 311 kts 270°
2026-05-05 03:09 9.25710 -79.00086 12912 ft 312 kts 270°
2026-05-05 03:09 9.25734 -79.02299 12912 ft 312 kts 270°
2026-05-05 03:09 9.25757 -79.04490 12912 ft 312 kts 270°
2026-05-05 03:10 9.25781 -79.06688 12912 ft 312 kts 270°
2026-05-05 03:10 9.25805 -79.08890 12912 ft 311 kts 270°
2026-05-05 03:10 9.25829 -79.11085 12912 ft 311 kts 270°
2026-05-05 03:10 9.25488 -79.13218 12882 ft 310 kts 248°
2026-05-05 03:11 9.24329 -79.15080 12598 ft 312 kts 224°
2026-05-05 03:11 9.22568 -79.16326 12298 ft 310 kts 207°
2026-05-05 03:11 9.20681 -79.17413 11938 ft 310 kts 210°
2026-05-05 03:11 9.18832 -79.18547 11563 ft 309 kts 211°
2026-05-05 03:12 9.17019 -79.19700 11191 ft 309 kts 212°
2026-05-05 03:12 9.15214 -79.20872 10817 ft 308 kts 212°
2026-05-05 03:12 9.13436 -79.22041 10447 ft 307 kts 213°
2026-05-05 03:12 9.11640 -79.23229 10071 ft 307 kts 213°
2026-05-05 03:13 9.09852 -79.24418 9695 ft 306 kts 213°
2026-05-05 03:13 9.08083 -79.25597 9323 ft 305 kts 213°
2026-05-05 03:13 9.06322 -79.26773 8951 ft 305 kts 213°
2026-05-05 03:13 9.04542 -79.27962 8575 ft 304 kts 213°
2026-05-05 03:14 9.02792 -79.29132 8179 ft 298 kts 213°
2026-05-05 03:14 9.01063 -79.30183 7788 ft 289 kts 208°
2026-05-05 03:14 8.99291 -79.31147 7391 ft 281 kts 208°
2026-05-05 03:14 8.97599 -79.32072 6967 ft 268 kts 208°
2026-05-05 03:15 8.95986 -79.32958 6572 ft 261 kts 209°
2026-05-05 03:15 8.94423 -79.33818 6404 ft 251 kts 209°
2026-05-05 03:15 8.92888 -79.34664 6079 ft 248 kts 209°
2026-05-05 03:15 8.91375 -79.35499 5701 ft 247 kts 209°
2026-05-05 03:16 8.89877 -79.36325 5324 ft 243 kts 209°
2026-05-05 03:16 8.88420 -79.37129 4945 ft 239 kts 209°
2026-05-05 03:16 8.86990 -79.37919 4727 ft 232 kts 209°
2026-05-05 03:16 8.85585 -79.38694 4516 ft 230 kts 209°
2026-05-05 03:17 8.84178 -79.39471 4313 ft 229 kts 209°
2026-05-05 03:17 8.82766 -79.40251 4112 ft 229 kts 209°
2026-05-05 03:17 8.81366 -79.41025 3933 ft 228 kts 209°
2026-05-05 03:17 8.80151 -79.42009 3884 ft 226 kts 236°
2026-05-05 03:18 8.79649 -79.43486 3913 ft 224 kts 268°
2026-05-05 03:18 8.80002 -79.44999 3914 ft 223 kts 300°
2026-05-05 03:18 8.80809 -79.46345 3928 ft 224 kts 300°
2026-05-05 03:18 8.81587 -79.47727 3915 ft 224 kts 300°
2026-05-05 03:19 8.83113 -79.50497 3935 ft 223 kts 300°
2026-05-05 03:19 8.83860 -79.51872 3994 ft 225 kts 300°
2026-05-05 03:19 8.84624 -79.53282 3993 ft 225 kts 300°
2026-05-05 03:20 8.85370 -79.54666 3994 ft 225 kts 300°
2026-05-05 03:20 8.86117 -79.56054 3994 ft 225 kts 300°
2026-05-05 03:20 8.86860 -79.57437 3993 ft 225 kts 299°
2026-05-05 03:20 8.87611 -79.58836 3994 ft 225 kts 299°
2026-05-05 03:21 8.88397 -79.60299 3993 ft 225 kts 300°
2026-05-05 03:21 8.89509 -79.61421 3974 ft 222 kts 333°
2026-05-05 03:21 8.91011 -79.61723 3991 ft 223 kts
2026-05-05 03:21 8.92485 -79.61115 3992 ft 224 kts 39°
2026-05-05 03:22 8.93371 -79.59804 3992 ft 226 kts 71°
2026-05-05 03:22 8.93421 -79.58219 3992 ft 229 kts 103°
2026-05-05 03:22 8.92658 -79.56773 4017 ft 230 kts 124°
2026-05-05 03:22 8.91722 -79.55477 3998 ft 231 kts 126°
2026-05-05 03:23 8.90714 -79.54163 3994 ft 229 kts 128°
2026-05-05 03:23 8.89981 -79.52711 3980 ft 216 kts 100°
2026-05-05 03:23 8.89973 -79.51215 3972 ft 210 kts 73°
2026-05-05 03:23 8.90779 -79.49972 3994 ft 204 kts 40°
2026-05-05 03:24 8.91687 -79.49232 4008 ft 204 kts 38°
2026-05-05 03:24 8.92794 -79.48322 3959 ft 205 kts 38°
2026-05-05 03:24 8.93898 -79.47401 3706 ft 206 kts 39°
2026-05-05 03:24 8.94990 -79.46481 3497 ft 204 kts 39°
2026-05-05 03:25 8.96081 -79.45557 3260 ft 199 kts 39°
2026-05-05 03:25 8.96947 -79.44859 3045 ft 193 kts 32°
2026-05-05 03:25 8.98001 -79.44237 2773 ft 188 kts 29°
2026-05-05 03:25 8.99108 -79.43591 2454 ft 179 kts 29°
2026-05-05 03:26 9.00164 -79.42970 2136 ft 167 kts 29°
2026-05-05 03:26 9.01158 -79.42384 1814 ft 160 kts 30°
2026-05-05 03:26 9.02120 -79.41814 1479 ft 153 kts 30°
2026-05-05 03:26 9.03013 -79.41284 1221 ft 147 kts 30°
2026-05-05 03:27 9.03887 -79.40762 976 ft 142 kts 30°
2026-05-05 03:27 9.04740 -79.40254 762 ft 141 kts 30°
2026-05-05 03:27 9.05598 -79.39743 554 ft 141 kts 30°
2026-05-05 03:27 9.06455 -79.39226 348 ft 146 kts 30°
2026-05-05 03:28 9.07327 -79.38701 176 ft 147 kts 30°
2026-05-05 03:28 9.08160 -79.38197 140 ft 123 kts 31°
2026-05-05 03:28 9.08750 -79.37845 139 ft 74 kts 31°
2026-05-05 03:28 9.09108 -79.37630 139 ft 55 kts 31°
2026-05-05 03:29 9.09317 -79.37504 139 ft 22 kts 32°
2026-05-05 03:29 9.09322 -79.37424 139 ft 12 kts 121°
2026-05-05 03:29 9.09264 -79.37343 139 ft 15 kts 150°
2026-05-05 03:29 9.09152 -79.37363 139 ft 17 kts 197°
2026-05-05 03:30 9.09032 -79.37399 139 ft 18 kts 197°
2026-05-05 03:30 9.08900 -79.37441 139 ft 20 kts 204°
2026-05-05 03:30 9.08776 -79.37514 139 ft 21 kts 211°
2026-05-05 03:30 9.08646 -79.37592 139 ft 21 kts 210°
2026-05-05 03:31 9.08516 -79.37672 139 ft 22 kts 218°
2026-05-05 03:31 9.08406 -79.37783 139 ft 22 kts 226°
2026-05-05 03:31 9.08297 -79.37897 139 ft 23 kts 226°
2026-05-05 03:31 9.08181 -79.38013 139 ft 23 kts 217°
2026-05-05 03:32 9.08038 -79.38101 139 ft 24 kts 211°
2026-05-05 03:32 9.08023 -79.38110 139 ft 24 kts 211°